Location: Newark
(25.6108°S, 54.5803°W)
Time: 11:08:04
(UTC+00:00)

Transit 2A - Pass Details

Date: 04 November 2020
Orbit: 595 x 964 km, 66.7° (Epoch: 28 November)

Event Time Altitude Azimuth Distance (km) Brightness Sun altitude
Rises 00:35:34 0° 202° (SSW) 3,261 10.1 -32.3°
Reaches altitude 10° 00:37:53 10° 201° (SSW) 2,384 9.2 -32.7°
Enters shadow 00:41:33 45° 195° (SSW) 1,143 7.1 -33.3°
